Location: 81360 Arifat, France
(43.7204°N, 2.3408°E)
Time: 16:59:42
(UTC+02:00)

Tiangong - Pass Details

Date: 25 September 2021
Orbit: 382 x 385 km, 41.5° (Epoch: 18 October)

Event Time Altitude Azimuth Distance (km) Brightness Sun altitude
Exits shadow 05:26:45 - 143° (SE) 2,126 5.0 -24.5°
Enters shadow 06:23:28 -72° 258° (WSW) 12,550 8.7 -14.8°
Maximum altitude 07:02:58 16° 153° (SSE) 1,071 3.6 -7.8°
